Warning: Javascript must be enabled to use all the features on this page!


Page Loading - Please Wait...

Click to hideNews Bulletins
  • Have your voice heard. Have a few minutes? We're surveying users about their experience with Water Data for the Nation (WDFN). Please take a few minutes to complete our online survey.
  • See the Water Data for the Nation Blog for the latest news and updates.

Peak Streamflow for the Nation

USGS 11493500 WILLIAMSON RIVER NEAR KLAMATH AGENCY, OR

Klamath County, Oregon
Hydrologic Unit Code 18010201
Latitude  42°44'25", Longitude 121°50'00" NAD27
Drainage area 1,290  square miles
Gage datum 4,483.16 feet above NGVD29
Output formats
Table
Graph
Tab-separated file
peakfq (watstore) format
Reselect output format
Water
Year
Date Gage
Height
(feet)
Stream-
flow
(cfs)
1910 1910-03-13   1,5907
1955 1955-04-04 5.29 683
1956 1956-04-13 5.716 1,200
1957 1957-03-07 5.50 1,060
1958 1958-03-03 5.75 1,310
1959 1959-02-01 5.05 550
1960 1960-04-03 5.14 742
1961 1961-02-18 4.86 528
1962 1962-04-11 5.12 685
1963 1963-02-21 4.71 425
1964 1964-04-13 4.89 501
1965 1964-12-27 5.42 1,000
1966 1966-04-02 5.39 976
1967 1967-04-21 4.84 508
1968 1968-02-29 5.032 678
1969 1969-04-05 5.12 746
1970 1970-02-01 5.21 746
1971 1971-04-25 5.10 684
1972 1972-03-04 5.44 1,020
1973 1973-03-11 4.73 449
1974 1974-04-10 5.27 870
1975 1975-05-09 5.19 802
1976 1976-03-30 4.87 558
1977 1977-03-30 4.55 365
1978 1978-01-17 4.93 601
1979 1979-03-19 4.64 484
1980 1980-01-17 4.45 358
1981 1981-03-05 4.14 226
1982 1982-02-27 5.37 967
1983 1983-04-04 5.44 1,000
1984 1984-03-29 5.16 804
1985 1985-04-05 5.16 804
1986 1986-03-02 5.50 1,220
1987 1987-03-15 5.07 718
1988 1988-03-01 4.70 463
1989 1989-03-21 5.22 866
1990 1990-03-26 4.49 359
1991 1991-04-11 3.94 170
1992 1992-03-07 3.47 82.0
1993 1993-04-04 5.11 804
1994 1994-03-24 3.64 102
1995 1995-03-27 3.91 159
1999 1999-04-22 5.18 824
2000 2000-03-05 4.93 608
2001 2001-03-24 4.61 416
2002 2002-03-09 4.65 426
2003 2003-02-06 4.50 411
2004 2004-03-22 4.27 278
2005 2005-03-30 3.92 169
2006 2006-04-22 5.13 763
2007 2007-03-17 4.53 371
2008 2008-04-19 4.582 414
2009 2009-03-26 3.99 188
2010 2010-04-22 3.54 89.0
2011 2011-04-08 3.74 127
2012 2012-04-14 4.39 357
2013 2013-03-30 3.79 131
2014 2014-04-01 3.492 76.0
2015 2014-10-01   0.00
2016 2016-03-18 4.36 314
2017 2017-03-28 4.91 605
2018 2018-04-19 3.05 31.6
2019 2019-04-12 4.39 327
2020 2020-02-19 3.18 37.3
2021 2020-11-13   0.00
?
  Peak Gage-Height Qualification Codes.
?
  Peak Streamflow Qualification Codes.